This is the latest recevied weather packets stored in our database for station/object LU1MQF-13. If no packets are shown the sender has not sent any weather packets the latest 10 day(s).
| Time | Temp. | Humidity | Pressure | Rain* | Wind** | Luminosity | Snow |
|---|---|---|---|---|---|---|---|
| 1777938126 | 17.22° C | 46% | 932.3 hPa | - | - | - | - |
| 1777937227 | 17.22° C | 46% | 932 hPa | - | - | - | - |
| 1777936327 | 17.22° C | 46% | 931.7 hPa | - | - | - | - |
| 1777935427 | 17.78° C | 46% | 931.7 hPa | - | - | - | - |
| 1777934527 | 17.78° C | 46% | 931.4 hPa | - | - | - | - |
| 1777933627 | 18.89° C | 46% | 931.3 hPa | - | - | - | - |
| 1777932727 | 18.89° C | 46% | 931.1 hPa | - | - | - | - |
| 1777931827 | 18.89° C | 48% | 931.2 hPa | - | - | - | - |
| 1777930927 | 21.11° C | 48% | 931.1 hPa | - | - | - | - |
| 1777930026 | 21.11° C | 52% | 931 hPa | - | - | - | - |
| 1777929126 | 22.22° C | 45% | 930.8 hPa | - | - | - | - |
| 1777928226 | 21.11° C | 34% | 930.6 hPa | - | - | - | - |
| 1777927326 | 22.22° C | 34% | 930.5 hPa | - | - | - | - |
| 1777926426 | 22.22° C | 34% | 930.5 hPa | - | - | - | - |
| 1777925526 | 22.78° C | 34% | 930.4 hPa | - | - | - | - |
| 1777924626 | 22.78° C | 34% | 930.3 hPa | - | - | - | - |
| 1777922826 | 22.78° C | 34% | 930.2 hPa | - | - | - | - |
| 1777921926 | 22.78° C | 34% | 930.2 hPa | - | - | - | - |
| 1777921027 | 22.78° C | 34% | 930.2 hPa | - | - | - | - |
| 1777920126 | 22.78° C | 34% | 930.4 hPa | - | - | - | - |
| 1777919226 | 22.78° C | 34% | 930.3 hPa | - | - | - | - |
| 1777917427 | 22.78° C | 34% | 930.5 hPa | - | - | - | - |
| 1777916526 | 22.78° C | 36% | 930.6 hPa | - | - | - | - |
| 1777915626 | 22.78° C | 34% | 930.7 hPa | - | - | - | - |
| 1777914725 | 22.22° C | 33% | 931 hPa | - | - | - | - |
* Rain since midnight (hover to see other rain measurements)
** Current wind speed in m/s (hover to see current wind gust speed)